Change the Weather History Date:

Monday, December 10, 2012

  Actual Average Record
Temperature  
Mean Temperature 32 °F 27 °F  
Max Temperature 34 °F 35 °F 57 °F (1911)
Min Temperature 29 °F 19 °F -20 °F (1919)
Degree Days  
Heating Degree Days 33 38  
Month to date heating degree days 232 362  
Since 1 July heating degree days 1591 1697  
Cooling Degree Days 0 0  
Month to date cooling degree days 0 0  
Year to date cooling degree days 1227 820  
Moisture  
Dew Point 27 °F    
Average Humidity 88    
Maximum Humidity 100    
Minimum Humidity 75    
Precipitation  
Precipitation T in 0.07 in 1.60 in (2003)
Month to date precipitation 0.73 0.75  
Year to date precipitation 21.59 35.01  
Snow  
Snow T in 0.40 in 7.00 in (1944)
Month to date snowfall T 3.2  
Since 1 July snowfall T 5.0  
Snow Depth -    
Sea Level Pressure  
Sea Level Pressure 29.85 in    
Wind  
Wind Speed 12 mph (NW)    
Max Wind Speed 22 mph    
Max Gust Speed 28 mph    
Visibility 8 miles    
Events Snow    
T = Trace of Precipitation, MM = Missing Value Source: NWS Daily Summary

Daily Weather History Graph

Daily Weather History Graph

Search for Another Location

Airport or City:

Trip Planner

Search our weather history database for the weather conditions in past years. The results will help you decide how hot, cold, wet, or windy it might be!

Date:

Astronomy

Dec. 10, 2012 Rise Set
Actual Time 7:14 AM CST 4:24 PM CST
Civil Twilight 6:42 AM CST 4:56 PM CST
Nautical Twilight 6:07 AM CST 5:31 PM CST
Astronomical Twilight 5:33 AM CST 6:05 PM CST
Moon 3:55 AM CST (12/10) 2:15 PM CST (12/10)
Length of Visible Light 10h 13m
Length of Day
9h 09m
Waning Crescent, 10% of the Moon is Illuminated
Dec 10
Waning Crescent
Dec 13
New
Dec 19
First Quarter
Dec 28
Full
Jan 4
Last Quarter

Hourly Weather History & Observations

Time (CST) Temp. Windchill Dew Point Humidity Pressure Visibility Wind Dir Wind Speed Gust Speed Precip Events Conditions
12:13 AM 33.8 °F 24.8 °F 32.0 °F 93% 29.75 in 6.0 mi West 12.7 mph - N/A   Overcast
12:52 AM 32.0 °F 21.2 °F 28.4 °F 87% 29.74 in 8.0 mi West 16.1 mph 27.6 mph N/A   Overcast
12:54 AM 32.0 °F 21.2 °F 28.9 °F 88% 29.75 in 8.0 mi West 16.1 mph 27.6 mph N/A   Overcast
1:30 AM 30.2 °F 18.5 °F 26.6 °F 86% 29.75 in 10.0 mi West 17.3 mph 25.3 mph N/A   Overcast
1:54 AM 30.0 °F 18.7 °F 27.0 °F 88% 29.77 in 10.0 mi West 16.1 mph - N/A   Overcast
2:54 AM 28.9 °F 18.2 °F 26.1 °F 89% 29.77 in 10.0 mi West 13.8 mph 21.9 mph N/A   Overcast
3:54 AM 28.9 °F 18.6 °F 26.1 °F 89% 29.77 in 10.0 mi West 12.7 mph - N/A   Overcast
4:54 AM 30.0 °F 21.1 °F 27.0 °F 88% 29.78 in 10.0 mi West 10.4 mph - N/A   Overcast
5:54 AM 30.0 °F 21.1 °F 27.0 °F 88% 29.79 in 8.0 mi West 10.4 mph - N/A   Overcast
6:54 AM 30.0 °F 22.4 °F 28.0 °F 92% 29.79 in 7.0 mi West 8.1 mph - N/A   Overcast
7:54 AM 30.9 °F 23.5 °F 28.9 °F 92% 29.81 in 8.0 mi West 8.1 mph - N/A   Overcast
8:16 AM 30.2 °F 21.3 °F 28.4 °F 93% 29.80 in 6.0 mi West 10.4 mph - 0.00 in   Light Freezing Drizzle
8:54 AM 30.9 °F 23.5 °F 28.9 °F 92% 29.83 in 5.0 mi West 8.1 mph - 0.00 in Snow Light Freezing Drizzle
9:03 AM 30.2 °F 22.6 °F 28.4 °F 93% 29.81 in 6.0 mi West 8.1 mph - 0.00 in Snow Light Snow
9:54 AM 32.0 °F 25.6 °F 30.0 °F 92% 29.84 in 6.0 mi West 6.9 mph - 0.00 in Snow Light Snow
10:54 AM 33.1 °F 24.9 °F 30.9 °F 92% 29.85 in 5.0 mi NW 10.4 mph - 0.00 in Snow Light Ice Pellets
10:58 AM 33.8 °F 26.4 °F 30.2 °F 87% 29.83 in 7.0 mi North 9.2 mph - 0.00 in Snow Light Snow
11:11 AM 33.8 °F 25.3 °F 30.2 °F 87% 29.83 in 7.0 mi North 11.5 mph - 0.00 in Snow Light Snow
11:23 AM 33.8 °F 26.4 °F 30.2 °F 87% 29.83 in 8.0 mi North 9.2 mph - 0.00 in Snow Light Snow
11:54 AM 34.0 °F 25.0 °F 28.9 °F 82% 29.85 in 9.0 mi North 12.7 mph - 0.00 in Snow Light Snow
12:02 PM 33.8 °F 24.8 °F 28.4 °F 81% 29.83 in 9.0 mi North 12.7 mph - 0.00 in Snow Light Snow
12:15 PM 33.8 °F 25.3 °F 28.4 °F 81% 29.83 in 9.0 mi North 11.5 mph - 0.00 in   Overcast
12:38 PM 33.8 °F 26.4 °F 28.4 °F 81% 29.82 in 10.0 mi North 9.2 mph - 0.00 in   Overcast
12:54 PM 33.1 °F 24.9 °F 27.0 °F 78% 29.84 in 10.0 mi North 10.4 mph - 0.00 in   Overcast
1:54 PM 33.1 °F 23.9 °F 27.0 °F 78% 29.83 in 10.0 mi North 12.7 mph - N/A   Overcast
2:54 PM 33.1 °F 26.1 °F 26.1 °F 75% 29.87 in 10.0 mi NNW 8.1 mph - N/A   Overcast
3:26 PM 32.0 °F 24.2 °F 24.8 °F 75% 29.86 in 10.0 mi North 9.2 mph - N/A   Overcast
3:54 PM 30.9 °F 22.8 °F 24.1 °F 76% 29.89 in 10.0 mi North 9.2 mph - N/A   Mostly Cloudy
4:01 PM 30.2 °F 21.3 °F 24.8 °F 80% 29.87 in 10.0 mi North 10.4 mph - N/A   Mostly Cloudy
4:54 PM 30.0 °F 21.1 °F 21.9 °F 72% 29.92 in 10.0 mi North 10.4 mph - N/A   Overcast
5:54 PM 30.9 °F 25.2 °F 21.9 °F 69% 29.94 in 10.0 mi North 5.8 mph - N/A   Overcast
6:54 PM 30.9 °F 25.2 °F 21.9 °F 69% 29.95 in 10.0 mi NNE 5.8 mph - N/A   Overcast
7:54 PM 30.0 °F 25.2 °F 23.0 °F 75% 29.96 in 10.0 mi West 4.6 mph - N/A   Overcast
8:54 PM 30.0 °F 24.1 °F 26.1 °F 85% 29.97 in 7.0 mi West 5.8 mph - 0.00 in Snow Light Snow
9:05 PM 30.2 °F 22.6 °F 26.6 °F 86% 29.94 in 7.0 mi West 8.1 mph - 0.00 in Snow Light Snow
9:54 PM 28.9 °F 21.1 °F 25.0 °F 85% 29.98 in 7.0 mi West 8.1 mph - 0.00 in Snow Light Snow
10:37 PM 28.4 °F 22.2 °F 24.8 °F 86% 29.96 in 7.0 mi West 5.8 mph - 0.00 in Snow Light Snow
10:54 PM 28.9 °F 23.9 °F 24.1 °F 82% 29.99 in 7.0 mi West 4.6 mph - 0.00 in Snow Light Snow
11:54 PM 28.9 °F 21.9 °F 24.1 °F 82% 29.99 in 7.0 mi West 6.9 mph - 0.00 in Snow Light Snow